Location: R�o Tuerlos
(40.6704°N, 4.4622°W)
Time: 04:38:05
(UTC+00:00)

Meteor 1-27 - Pass Details

Date: 07 June 2020
Orbit: 836 x 894 km, 81.3° (Epoch: 10 July)

Event Time Altitude Azimuth Distance (km) Brightness Sun altitude
Rises 01:51:10 0° 350° (N) 3,396 8.2 -22.9°
Reaches altitude 10° 01:53:35 10° 351° (N) 2,460 7.4 -22.7°
Maximum altitude 01:59:10 86° 81° (E) 849 4.1 -22.2°
Enters shadow 02:01:16 40° 168° (SSE) 1,220 4.6 -22.1°
